View from above orbital plane
|
View from above satellite
|
Ground track
|
The orbit data is extracted from the following two-line orbital elements,
1 29U 60002B 22229.36828728 .00000308 00000-0 76300-4 0 9991
2 29 48.3788 175.3962 0023969 15.3640 344.7995 14.74702199335378
Epoch (UTC): | 17 August 2022 08:50:20 |
Eccentricity: | 0.0023969 |
inclination: | 48.3788° |
perigee height: | 629 km |
apogee height: | 663 km |
right ascension of ascending node: | 175.3962° |
argument of perigee: | 15.3640° |
revolutions per day: | 14.74702199 |
mean anomaly at epoch: | 344.7995° |
orbit number at epoch: | 33537 |
The dashed part of the orbit path shows where the satellite is in the earth's shadow,
|
|